RYR1GR EBCI-LIRP

Flight info

Callsign RYR1GR
Flight time 1h 25m
Altitude 35000
Route RITAX UT27 ROUSY DCT GTQ DCT DEVDI DCT ODINA/N0340F190 DCT SRN DCT OSBUL DCT EKPAL DCT MIVKI
Aircraft B738/M-SDE3FGILRWY/SB1

Departure

Time 2026-04-29 15:14
Airport Brussels South Charleroi Airport (EBCI)

Arrival

Time 2026-04-29 16:39
Airport Pisa International Airport (LIRP)
Time Latitude Longitude Altitude Speed Heading
2026-04-29 15:14 50.48612 4.49836 2507 ft 199 kts 24°
2026-04-29 15:14 50.49688 4.51195 2684 ft 211 kts 63°
2026-04-29 15:14 50.50371 4.53344 3067 ft 228 kts 62°
2026-04-29 15:14 50.51243 4.55498 3714 ft 237 kts 59°
2026-04-29 15:15 50.52215 4.57664 4440 ft 245 kts 58°
2026-04-29 15:15 50.53233 4.59872 5164 ft 253 kts 58°
2026-04-29 15:15 50.54302 4.62079 6041 ft 252 kts 57°
2026-04-29 15:15 50.55382 4.64282 6869 ft 255 kts 55°
2026-04-29 15:16 50.56486 4.66527 7575 ft 260 kts 56°
2026-04-29 15:16 50.57589 4.68767 8461 ft 259 kts 55°
2026-04-29 15:16 50.58698 4.71022 9192 ft 263 kts 55°
2026-04-29 15:16 50.59833 4.73331 9898 ft 268 kts 54°
2026-04-29 15:17 50.60959 4.75618 10689 ft 270 kts 54°
2026-04-29 15:17 50.62154 4.78053 10908 ft 293 kts 54°
2026-04-29 15:17 50.63443 4.80682 11175 ft 311 kts 54°
2026-04-29 15:17 50.64684 4.83499 11873 ft 313 kts 65°
2026-04-29 15:18 50.65245 4.86834 12435 ft 322 kts 86°
2026-04-29 15:18 50.64959 4.90334 13251 ft 324 kts 105°
2026-04-29 15:18 50.63963 4.93558 13972 ft 335 kts 124°
2026-04-29 15:18 50.62394 4.96314 14687 ft 340 kts 131°
2026-04-29 15:19 50.60695 4.98989 15225 ft 350 kts 132°
2026-04-29 15:19 50.58944 5.01675 15955 ft 353 kts 132°
2026-04-29 15:19 50.57175 5.04382 16598 ft 358 kts 132°
2026-04-29 15:19 50.55376 5.07151 17218 ft 364 kts 132°
2026-04-29 15:20 50.53580 5.09932 17878 ft 368 kts 131°
2026-04-29 15:20 50.51747 5.12782 18558 ft 372 kts 131°
2026-04-29 15:20 50.49895 5.15670 19114 ft 377 kts 131°
2026-04-29 15:20 50.48031 5.18579 19728 ft 379 kts 131°
2026-04-29 15:21 50.46153 5.21510 20371 ft 381 kts 131°
2026-04-29 15:21 50.44269 5.24449 20966 ft 384 kts 131°
2026-04-29 15:21 50.42366 5.27416 21546 ft 387 kts 131°
2026-04-29 15:21 50.40447 5.30405 22133 ft 390 kts 131°
2026-04-29 15:22 50.38516 5.33408 22699 ft 393 kts 131°
2026-04-29 15:22 50.36568 5.36434 23264 ft 396 kts 131°
2026-04-29 15:22 50.34604 5.39482 23810 ft 399 kts 131°
2026-04-29 15:22 50.32628 5.42543 24273 ft 401 kts 131°
2026-04-29 15:23 50.30638 5.45622 24764 ft 403 kts 131°
2026-04-29 15:23 50.28639 5.48711 25251 ft 404 kts 131°
2026-04-29 15:23 50.26634 5.51806 25726 ft 406 kts 131°
2026-04-29 15:23 50.24623 5.54907 26162 ft 409 kts 131°
2026-04-29 15:24 50.22585 5.58046 26542 ft 412 kts 131°
2026-04-29 15:24 50.20538 5.61195 26984 ft 414 kts 131°
2026-04-29 15:24 50.18485 5.64349 27438 ft 415 kts 131°
2026-04-29 15:24 50.16420 5.67516 27868 ft 417 kts 131°
2026-04-29 15:25 50.14347 5.70693 28279 ft 419 kts 131°
2026-04-29 15:25 50.12262 5.73885 28681 ft 421 kts 131°
2026-04-29 15:25 50.10191 5.77051 29082 ft 423 kts 131°
2026-04-29 15:25 50.07962 5.80175 29446 ft 431 kts 141°
2026-04-29 15:26 50.05237 5.82244 29803 ft 443 kts 156°
2026-04-29 15:26 50.02306 5.83743 30233 ft 444 kts 158°
2026-04-29 15:26 49.99358 5.85202 30577 ft 445 kts 158°
2026-04-29 15:26 49.96407 5.86662 30956 ft 445 kts 158°
2026-04-29 15:27 49.93471 5.88130 31368 ft 443 kts 158°
2026-04-29 15:27 49.90580 5.89592 31769 ft 442 kts 158°
2026-04-29 15:27 49.87659 5.91083 32156 ft 442 kts 157°
2026-04-29 15:27 49.84738 5.92581 32461 ft 443 kts 157°
2026-04-29 15:28 49.81812 5.94084 32775 ft 444 kts 157°
2026-04-29 15:28 49.79830 5.95101 33034 ft 443 kts 158°
2026-04-29 15:28 49.75954 5.97086 33552 ft 442 kts 158°
2026-04-29 15:28 49.73038 5.98577 33924 ft 441 kts 158°
2026-04-29 15:29 49.70122 6.00065 34250 ft 441 kts 158°
2026-04-29 15:29 49.64283 6.03041 34741 ft 443 kts 159°
2026-04-29 15:30 49.59372 6.05537 35159 ft 444 kts 159°
2026-04-29 15:30 49.53437 6.08549 35218 ft 453 kts 160°
2026-04-29 15:31 49.47557 6.12005 35201 ft 450 kts 148°
2026-04-29 15:31 49.42534 6.17562 35212 ft 443 kts 137°
2026-04-29 15:32 49.37781 6.23575 35197 ft 442 kts 138°
2026-04-29 15:32 49.33012 6.29537 35195 ft 445 kts 139°
2026-04-29 15:33 49.28147 6.35544 35207 ft 452 kts 139°
2026-04-29 15:33 49.23235 6.41573 35201 ft 452 kts 140°
2026-04-29 15:34 49.18326 6.47584 35185 ft 452 kts 139°
2026-04-29 15:34 49.13413 6.53586 35183 ft 452 kts 139°
2026-04-29 15:35 49.08507 6.59568 35179 ft 452 kts 140°
2026-04-29 15:35 49.03620 6.65511 35192 ft 453 kts 140°
2026-04-29 15:36 48.98624 6.71399 35188 ft 456 kts 146°
2026-04-29 15:36 48.92940 6.75687 35183 ft 458 kts 156°
2026-04-29 15:37 48.87087 6.79556 35165 ft 460 kts 158°
2026-04-29 15:37 48.81217 6.83474 35175 ft 461 kts 157°
2026-04-29 15:38 48.75343 6.87443 35180 ft 463 kts 157°
2026-04-29 15:38 48.69455 6.91434 35166 ft 464 kts 157°
2026-04-29 15:39 48.63552 6.95428 35167 ft 465 kts 157°
2026-04-29 15:39 48.57636 6.99418 35171 ft 465 kts 157°
2026-04-29 15:40 48.51721 7.03395 35168 ft 465 kts 157°
2026-04-29 15:40 48.45818 7.07355 35158 ft 464 kts 157°
2026-04-29 15:41 48.39928 7.11296 35131 ft 463 kts 159°
2026-04-29 15:41 48.34054 7.15216 35139 ft 461 kts 159°
2026-04-29 15:42 48.28183 7.19123 35143 ft 462 kts 159°
2026-04-29 15:42 48.22305 7.23025 35137 ft 463 kts 159°
2026-04-29 15:43 48.16448 7.26905 35119 ft 464 kts 160°
2026-04-29 15:43 48.10541 7.30808 35144 ft 465 kts 160°
2026-04-29 15:44 48.04614 7.34712 35137 ft 466 kts 160°
2026-04-29 15:44 47.98657 7.38627 35113 ft 468 kts 160°
2026-04-29 15:45 47.92685 7.42544 35123 ft 469 kts 160°
2026-04-29 15:45 47.86698 7.46459 35119 ft 471 kts 160°
2026-04-29 15:46 47.80690 7.50379 35102 ft 472 kts 160°
2026-04-29 15:46 47.74668 7.54300 35094 ft 472 kts 161°
2026-04-29 15:47 47.68690 7.58360 35123 ft 473 kts 159°
2026-04-29 15:47 47.62763 7.62584 35110 ft 473 kts 159°
2026-04-29 15:48 47.56836 7.66797 35101 ft 472 kts 159°
2026-04-29 15:48 47.50957 7.70934 35100 ft 469 kts 159°
2026-04-29 15:49 47.45066 7.75054 35107 ft 467 kts 159°
2026-04-29 15:49 47.39202 7.79141 35100 ft 465 kts 159°
2026-04-29 15:50 47.33353 7.83208 35115 ft 464 kts 159°
2026-04-29 15:50 47.27522 7.87254 35100 ft 462 kts 159°
2026-04-29 15:51 47.21711 7.91277 35099 ft 461 kts 159°
2026-04-29 15:51 47.15916 7.95278 35112 ft 460 kts 159°
2026-04-29 15:52 47.10128 7.99265 35095 ft 460 kts 159°
2026-04-29 15:52 47.04344 8.03239 35117 ft 459 kts 159°
2026-04-29 15:53 46.98565 8.07201 35127 ft 459 kts 159°
2026-04-29 15:53 46.92782 8.11156 35133 ft 459 kts 159°
2026-04-29 15:54 46.87000 8.15101 35111 ft 459 kts 159°
2026-04-29 15:54 46.81210 8.19042 35147 ft 459 kts 159°
2026-04-29 15:55 46.75454 8.22951 35142 ft 460 kts 159°
2026-04-29 15:55 46.69640 8.26889 35127 ft 461 kts 159°
2026-04-29 15:56 46.63806 8.30832 35118 ft 462 kts 159°
2026-04-29 15:56 46.57963 8.34771 35118 ft 464 kts 159°
2026-04-29 15:57 46.52140 8.38688 35117 ft 464 kts 159°
2026-04-29 15:57 46.46286 8.42617 35096 ft 463 kts 159°
2026-04-29 15:58 46.40440 8.46531 35118 ft 462 kts 159°
2026-04-29 15:58 46.34611 8.50426 35101 ft 460 kts 159°
2026-04-29 15:59 46.28759 8.54325 35090 ft 459 kts 159°
2026-04-29 15:59 46.22951 8.58186 35073 ft 459 kts 159°
2026-04-29 16:00 46.17145 8.62036 35068 ft 459 kts 159°
2026-04-29 16:00 46.11347 8.65873 35081 ft 459 kts 159°
2026-04-29 16:01 46.05684 8.70026 35070 ft 461 kts 154°
2026-04-29 16:01 46.00045 8.74544 35082 ft 461 kts 154°
2026-04-29 16:02 45.94438 8.79004 35078 ft 461 kts 154°
2026-04-29 16:02 45.88794 8.83425 35080 ft 463 kts 155°
2026-04-29 16:03 45.83128 8.87836 35072 ft 463 kts 155°
2026-04-29 16:03 45.77470 8.92231 35069 ft 462 kts 154°
2026-04-29 16:04 45.71819 8.96616 35072 ft 461 kts 155°
2026-04-29 16:04 45.66201 9.01031 35046 ft 461 kts 150°
2026-04-29 16:05 45.61344 9.07028 35062 ft 465 kts 134°
2026-04-29 16:05 45.57050 9.13910 35048 ft 464 kts 133°
2026-04-29 16:06 45.52760 9.20774 35047 ft 463 kts 133°
2026-04-29 16:06 45.48445 9.27575 35049 ft 462 kts 134°
2026-04-29 16:07 45.44114 9.34343 35048 ft 462 kts 134°
2026-04-29 16:07 45.39803 9.41055 35079 ft 463 kts 134°
2026-04-29 16:08 45.35456 9.47811 35077 ft 463 kts 134°
2026-04-29 16:08 45.31074 9.54606 35066 ft 462 kts 134°
2026-04-29 16:08 45.28947 9.57900 34918 ft 456 kts 134°
2026-04-29 16:09 45.26815 9.61198 34611 ft 449 kts 134°
2026-04-29 16:09 45.24715 9.64442 34259 ft 445 kts 134°
2026-04-29 16:09 45.22626 9.67665 33884 ft 442 kts 134°
2026-04-29 16:09 45.20520 9.70909 33467 ft 440 kts 134°
2026-04-29 16:10 45.18484 9.74042 33090 ft 437 kts 134°
2026-04-29 16:10 45.16430 9.77198 32723 ft 434 kts 134°
2026-04-29 16:10 45.14393 9.80326 32357 ft 430 kts 134°
2026-04-29 16:10 45.12375 9.83420 32012 ft 426 kts 134°
2026-04-29 16:11 45.10367 9.86497 31667 ft 424 kts 134°
2026-04-29 16:11 45.08373 9.89549 31316 ft 421 kts 134°
2026-04-29 16:11 45.06389 9.92581 30966 ft 419 kts 134°
2026-04-29 16:11 45.04418 9.95591 30623 ft 416 kts 134°
2026-04-29 16:12 45.02455 9.98585 30279 ft 414 kts 134°
2026-04-29 16:12 45.01135 10.00597 30064 ft 413 kts 134°
2026-04-29 16:12 44.98558 10.04520 29508 ft 409 kts 134°
2026-04-29 16:12 44.96628 10.07455 29141 ft 406 kts 134°
2026-04-29 16:13 44.94713 10.10365 28764 ft 403 kts 134°
2026-04-29 16:13 44.92808 10.13254 28403 ft 400 kts 134°
2026-04-29 16:13 44.90924 10.16112 28060 ft 396 kts 134°
2026-04-29 16:13 44.89052 10.18949 27697 ft 394 kts 134°
2026-04-29 16:14 44.87193 10.21760 27344 ft 391 kts 134°
2026-04-29 16:14 44.85336 10.24559 27000 ft 388 kts 136°
2026-04-29 16:14 44.83208 10.26816 26624 ft 381 kts 159°
2026-04-29 16:14 44.81574 10.27608 26458 ft 372 kts 172°
2026-04-29 16:15 44.79035 10.27922 26144 ft 362 kts 188°
2026-04-29 16:15 44.76583 10.27279 25827 ft 354 kts 199°
2026-04-29 16:15 44.74215 10.26368 25496 ft 352 kts 200°
2026-04-29 16:15 44.71869 10.25417 25156 ft 350 kts 200°
2026-04-29 16:16 44.69532 10.24471 24842 ft 349 kts 200°
2026-04-29 16:16 44.67203 10.23543 24538 ft 347 kts 199°
2026-04-29 16:16 44.64881 10.22633 24211 ft 346 kts 199°
2026-04-29 16:16 44.62561 10.21732 23892 ft 345 kts 199°
2026-04-29 16:17 44.60245 10.20839 23528 ft 345 kts 199°
2026-04-29 16:17 44.57935 10.19952 23169 ft 344 kts 199°
2026-04-29 16:17 44.55634 10.19070 22829 ft 342 kts 199°
2026-04-29 16:17 44.53346 10.18194 22489 ft 340 kts 199°
2026-04-29 16:18 44.51077 10.17326 22167 ft 338 kts 199°
2026-04-29 16:18 44.48817 10.16462 21859 ft 336 kts 199°
2026-04-29 16:18 44.46565 10.15628 21592 ft 333 kts 198°
2026-04-29 16:18 44.44328 10.14834 21275 ft 331 kts 197°
2026-04-29 16:19 44.42104 10.14053 20963 ft 329 kts 197°
2026-04-29 16:19 44.39889 10.13275 20649 ft 327 kts 197°
2026-04-29 16:19 44.37688 10.12499 20296 ft 326 kts 197°
2026-04-29 16:19 44.35494 10.11725 19975 ft 325 kts 197°
2026-04-29 16:20 44.33385 10.10981 19656 ft 324 kts 197°
2026-04-29 16:20 44.31206 10.10211 19359 ft 322 kts 197°
2026-04-29 16:20 44.29034 10.09442 19007 ft 322 kts 197°
2026-04-29 16:20 44.26863 10.08675 18692 ft 321 kts 197°
2026-04-29 16:21 44.24700 10.07912 18364 ft 321 kts 197°
2026-04-29 16:21 44.22495 10.07427 17992 ft 323 kts 183°
2026-04-29 16:21 44.20258 10.07758 17675 ft 324 kts 169°
2026-04-29 16:21 44.18078 10.08532 17373 ft 323 kts 167°
2026-04-29 16:22 44.15909 10.09345 17033 ft 322 kts 167°
2026-04-29 16:22 44.13754 10.10144 16724 ft 320 kts 167°
2026-04-29 16:22 44.11606 10.10924 16419 ft 318 kts 168°
2026-04-29 16:22 44.09463 10.11688 16107 ft 317 kts 168°
2026-04-29 16:23 44.07330 10.12442 15806 ft 316 kts 168°
2026-04-29 16:23 44.05204 10.13200 15499 ft 315 kts 168°
2026-04-29 16:23 44.03087 10.13977 15200 ft 314 kts 167°
2026-04-29 16:23 44.00978 10.14756 14896 ft 313 kts 167°
2026-04-29 16:24 43.98879 10.15531 14588 ft 312 kts 168°
2026-04-29 16:24 43.96780 10.16303 14279 ft 311 kts 168°
2026-04-29 16:24 43.94693 10.17069 13981 ft 310 kts 168°
2026-04-29 16:24 43.92609 10.17833 13645 ft 309 kts 168°
2026-04-29 16:25 43.90542 10.18630 13298 ft 309 kts 162°
2026-04-29 16:25 43.88697 10.20082 12990 ft 311 kts 144°
2026-04-29 16:25 43.87002 10.21974 12686 ft 309 kts 143°
2026-04-29 16:25 43.85342 10.23856 12374 ft 307 kts 143°
2026-04-29 16:26 43.83715 10.25695 12071 ft 305 kts 143°
2026-04-29 16:26 43.82068 10.27543 11765 ft 304 kts 143°
2026-04-29 16:26 43.80430 10.29370 11492 ft 302 kts 143°
2026-04-29 16:26 43.78791 10.31190 11146 ft 302 kts 143°
2026-04-29 16:27 43.77142 10.33014 10710 ft 304 kts 143°
2026-04-29 16:27 43.75586 10.34734 10395 ft 304 kts 143°
2026-04-29 16:27 43.73934 10.36557 10159 ft 301 kts 143°
2026-04-29 16:27 43.72320 10.38337 9984 ft 295 kts 143°
2026-04-29 16:28 43.70722 10.40097 9688 ft 293 kts 143°
2026-04-29 16:28 43.69149 10.41827 9568 ft 285 kts 143°
2026-04-29 16:28 43.67617 10.43511 9444 ft 277 kts 143°
2026-04-29 16:28 43.66130 10.45144 9331 ft 269 kts 143°
2026-04-29 16:29 43.64811 10.46923 9214 ft 265 kts 123°
2026-04-29 16:29 43.64259 10.49282 9146 ft 258 kts 93°
2026-04-29 16:29 43.64553 10.51686 8903 ft 256 kts 65°
2026-04-29 16:29 43.65521 10.53683 8656 ft 253 kts 43°
2026-04-29 16:30 43.66863 10.55235 8411 ft 251 kts 36°
2026-04-29 16:30 43.68274 10.56664 8150 ft 251 kts 34°
2026-04-29 16:30 43.69686 10.58078 7900 ft 250 kts 35°
2026-04-29 16:30 43.71088 10.59495 7663 ft 249 kts 36°
2026-04-29 16:31 43.72479 10.60919 7412 ft 249 kts 36°
2026-04-29 16:31 43.73866 10.62351 7186 ft 248 kts 36°
2026-04-29 16:31 43.75242 10.63776 6945 ft 247 kts 37°
2026-04-29 16:31 43.76615 10.65201 6695 ft 247 kts 37°
2026-04-29 16:32 43.78020 10.66558 6437 ft 247 kts 25°
2026-04-29 16:32 43.79685 10.66957 6153 ft 246 kts 352°
2026-04-29 16:32 43.81257 10.66055 5856 ft 248 kts 323°
2026-04-29 16:32 43.82510 10.64428 5605 ft 247 kts 313°
2026-04-29 16:33 43.84812 10.60945 5107 ft 240 kts 313°
2026-04-29 16:33 43.85924 10.59266 4861 ft 233 kts 311°
2026-04-29 16:33 43.86662 10.57342 4581 ft 223 kts 278°
2026-04-29 16:34 43.86552 10.55290 4348 ft 208 kts 250°
2026-04-29 16:34 43.85894 10.53594 4150 ft 195 kts 230°
2026-04-29 16:34 43.85075 10.52193 3962 ft 180 kts 229°
2026-04-29 16:34 43.84308 10.50892 3803 ft 172 kts 229°
2026-04-29 16:35 43.83468 10.49721 3561 ft 172 kts 206°
2026-04-29 16:35 43.82397 10.49065 3344 ft 168 kts 203°
2026-04-29 16:35 43.81343 10.48414 3088 ft 166 kts 204°
2026-04-29 16:35 43.80282 10.47753 2829 ft 165 kts 204°
2026-04-29 16:36 43.79264 10.47117 2593 ft 155 kts 205°
2026-04-29 16:36 43.78310 10.46519 2340 ft 149 kts 206°
2026-04-29 16:36 43.77360 10.45922 2104 ft 151 kts 205°
2026-04-29 16:36 43.76422 10.45333 1855 ft 145 kts 206°
2026-04-29 16:37 43.75506 10.44772 1686 ft 145 kts 207°
2026-04-29 16:37 43.74576 10.44193 1488 ft 149 kts 206°
2026-04-29 16:37 43.73635 10.43595 1213 ft 148 kts 205°
2026-04-29 16:37 43.73011 10.43210 989 ft 148 kts 206°
2026-04-29 16:38 43.71783 10.42465 704 ft 144 kts 206°
2026-04-29 16:38 43.70864 10.41882 469 ft 147 kts 209°
2026-04-29 16:38 43.70006 10.41121 234 ft 145 kts 220°
2026-04-29 16:38 43.69226 10.40305 45 ft 140 kts 220°
2026-04-29 16:39 43.68503 10.39561 18 ft 106 kts 217°
2026-04-29 16:39 43.68085 10.39126 16 ft 44 kts 217°
2026-04-29 16:39 43.67855 10.38885 16 ft 38 kts 217°
2026-04-29 16:39 43.67664 10.38687 17 ft 29 kts 217°
2026-04-29 16:40 43.67537 10.38553 18 ft 13 kts 233°
2026-04-29 16:40 43.67558 10.38455 14 ft 12 kts 306°
2026-04-29 16:40 43.67609 10.38363 12 ft 12 kts 311°
2026-04-29 16:40 43.67682 10.38381 14 ft 12 kts 37°
2026-04-29 16:41 43.67759 10.38459 14 ft 16 kts 36°
2026-04-29 16:41 43.67863 10.38566 13 ft 21 kts 37°
2026-04-29 16:41 43.67979 10.38686 13 ft 21 kts 37°
2026-04-29 16:41 43.68091 10.38802 12 ft 20 kts 37°
2026-04-29 16:42 43.68201 10.38915 13 ft 19 kts 37°
2026-04-29 16:42 43.68306 10.39024 15 ft 19 kts 37°
2026-04-29 16:42 43.68409 10.39129 16 ft 18 kts 37°
2026-04-29 16:42 43.68508 10.39231 16 ft 17 kts 37°
2026-04-29 16:43 43.68603 10.39330 17 ft 18 kts 37°
2026-04-29 16:43 43.68707 10.39438 16 ft 20 kts 37°
2026-04-29 16:43 43.68824 10.39558 17 ft 21 kts 37°
2026-04-29 16:43 43.68938 10.39677 17 ft 20 kts 37°
2026-04-29 16:44 43.69050 10.39792 19 ft 20 kts 37°
2026-04-29 16:44 43.69164 10.39903 21 ft 20 kts 26°
2026-04-29 16:44 43.69302 10.39905 17 ft 22 kts 353°
2026-04-29 16:44 43.69451 10.39897 15 ft 20 kts
2026-04-29 16:45 43.69573 10.39925 14 ft 17 kts
2026-04-29 16:45 43.69673 10.39956 16 ft 11 kts 34°
2026-04-29 16:45 43.69696 10.40019 15 ft 7 kts 33°
2026-04-29 16:45 43.69740 10.40029 14 ft 6 kts
2026-04-29 16:46 43.69749 10.40031 14 ft 0 kts